Date,TemperatureHighF,TemperatureAvgF,TemperatureLowF,DewpointHighF,DewpointAvgF,DewpointLowF,HumidityHigh,HumidityAvg,HumidityLow,PressureMaxIn,PressureMinIn,WindSpeedMaxMPH,WindSpeedAvgMPH,GustSpeedMaxMPH,PrecipitationSumIn
2013-2-5,53.5,51.6,49.3,49.0,47.9,45.0,91,87,84,30.08,30.01,13,4,13,0.00
2013-2-6,56.1,51.3,45.6,49.0,45.5,38.0,90,81,73,30.14,30.07,10,5,14,0.00
2013-2-7,55.6,50.8,45.6,50.0,45.7,41.0,88,83,72,30.14,30.00,13,7,16,0.00
2013-2-8,52.9,47.4,43.3,46.0,42.0,38.0,89,82,71,30.01,29.89,14,5,20,0.08
2013-2-9,54.2,49.3,45.8,47.0,43.5,40.0,87,80,70,30.08,29.96,12,5,17,0.00
2013-2-10,56.4,49.3,44.2,50.0,43.6,37.0,88,81,74,30.08,29.99,9,3,9,0.00
2013-2-11,55.5,50.2,44.8,49.0,44.2,37.0,90,80,66,30.22,30.04,10,3,10,0.00
2013-2-12,55.5,50.8,46.4,51.0,47.4,43.0,92,88,83,30.32,30.23,10,4,12,0.00
2013-2-13,57.4,51.9,46.6,52.0,46.2,41.0,90,81,67,30.28,30.15,13,4,14,0.00
2013-2-14,63.5,56.6,50.1,52.0,46.2,41.0,85,69,43,30.18,30.06,13,5,18,0.00
2013-2-15,78.9,64.9,56.6,54.0,41.8,34.0,75,45,20,30.18,30.12,18,5,22,0.00
2013-2-16,71.2,62.6,54.1,54.0,41.2,27.0,74,48,19,30.15,29.99,17,5,20,0.00
2013-2-17,56.1,51.7,47.2,51.0,46.7,38.0,91,83,54,30.00,29.93,14,5,19,0.00
2013-2-18,51.8,49.7,47.7,49.0,45.8,43.0,92,86,77,30.04,29.95,13,4,18,0.00
2013-2-19,51.0,47.5,42.4,47.0,41.4,35.0,92,79,68,29.96,29.74,20,6,30,0.09
2013-2-20,54.6,48.0,38.8,47.0,40.6,32.0,85,76,61,30.04,29.78,17,8,24,0.00
2013-2-21,55.3,49.5,42.5,48.0,42.2,37.0,82,76,67,30.14,30.01,15,5,17,0.00
2013-2-22,57.7,51.2,46.1,51.0,44.2,38.0,88,77,66,30.20,30.13,10,4,12,0.00
2013-2-23,55.2,51.8,47.4,49.0,44.5,34.0,90,77,53,30.20,30.03,18,6,23,0.00
2013-2-24,58.3,53.3,47.7,47.0,32.8,22.0,71,47,28,30.22,30.08,11,4,15,0.00
2013-2-25,55.3,51.2,46.3,49.0,43.0,34.0,88,74,54,30.23,30.09,12,4,14,0.00
2013-2-26,62.2,53.2,48.0,51.0,44.3,34.0,84,72,43,30.15,30.04,11,3,12,0.00
2013-2-27,58.7,52.5,48.6,53.0,45.9,37.0,90,79,62,30.30,30.15,11,3,12,0.00
2013-2-28,61.8,53.9,49.8,53.0,48.3,40.0,90,81,60,30.37,30.29,14,3,16,0.00